Flag for Canada Weather past 2 weeks in Kelowna, British Columbia, Canada

Now
37 °F

Scattered clouds.


Feels Like: 37 °F
Forecast: 23 / 37 °F
Wind: 2 mph from South

Location: Kelowna Airport

Current Time: Dec 25, 2014 at 3:34:12 PM

Latest Report: Dec 25, 2014 at 3:00 PM


Visibility: 9 mi

Pressure: 30.14 "Hg

Humidity: 87%

Dew point: 34 °F

Location of KelownaLocation

Historic Weather in Kelowna — Graph

°F

Kelowna temperature yesterday

Maximum temperature yesterday: 37 °F (at 12:00 AM)
Minimum temperature yesterday: 28 °F (at 7:00 PM)
Average temperature yesterday: 33 °F

Past Weeks' High & Low Weather Summary

 TemperatureHumidityPressure
High54 °F (Dec 10, 7:48 PM)100% (Dec 11, 6:55 PM)30.40 "Hg (Dec 11, 6:55 PM)
Low23 °F (Dec 15, 10:00 PM)53% (Dec 22, 3:00 PM)29.34 "Hg (Dec 10, 9:00 PM)
Average34 °F92%29.95 "Hg
* Reported Dec 10 2:00 PM — Dec 25 2:00 PM, Kelowna, Weather by CustomWeather, © 2014

Note: Actual official high and low records may vary slightly from our data, if they occured in-between our weather recording intervals... More about our weather records

Advertising

Kelowna weather history for previous 24 hours

 ConditionsComfort  
Time TempWeatherWind HumidityBarometerVisibility
2:00 PM
Dec 25
37 °FOvercast.2 mph87%30.14 "Hg9 mi
1:00 PM36 °FPassing clouds.2 mph87%30.14 "Hg9 mi
12:00 PM36 °FOvercast.No wind93%30.13 "Hg9 mi
11:00 AM34 °FMostly cloudy.2 mph93%30.13 "Hg9 mi
10:00 AM32 °FOvercast.No wind93%30.13 "Hg9 mi
9:00 AM30 °FOvercast.No wind100%30.11 "Hg9 mi
8:00 AM28 °FPartly sunny.No wind93%30.09 "Hg9 mi
7:00 AM32 °FMostly cloudy.No wind93%30.07 "Hg9 mi
6:00 AM30 °FOvercast.2 mph100%30.06 "Hg9 mi
5:00 AM30 °FOvercast.3 mph100%30.04 "Hg9 mi
4:00 AM30 °FOvercast.2 mph100%30.04 "Hg9 mi
3:00 AM30 °FMostly cloudy.No wind100%30.04 "Hg9 mi
2:00 AM30 °FOvercast.No wind100%30.01 "Hg9 mi
1:00 AM28 °FMostly cloudy.3 mph100%29.98 "Hg9 mi
12:00 AM30 °FOvercast.3 mph93%29.98 "Hg9 mi
11:00 PM
Dec 24
30 °FOvercast.5 mph100%29.98 "Hg9 mi
10:00 PM30 °FMostly cloudy.2 mph100%29.96 "Hg9 mi
9:00 PM30 °FOvercast.3 mph93%29.93 "Hg9 mi
8:00 PM30 °FPassing clouds.2 mph100%29.92 "Hg9 mi
7:00 PM28 °FClear.5 mph100%29.90 "Hg9 mi
6:00 PM32 °FPassing clouds.3 mph100%29.89 "Hg9 mi
5:48 PM34 °FPassing clouds.3 mph93%29.88 "Hg9 mi
5:00 PM34 °FOvercast.2 mph100%29.87 "Hg9 mi
4:00 PM34 °FMostly cloudy.3 mph100%29.86 "Hg9 mi
3:00 PM34 °FPartly sunny.2 mph93%29.83 "Hg9 mi
Weather by CustomWeather, © 2014

See weather overviewHow to use our weather pages